Time,TemperatureF,DewpointF,PressureIn,WindDirection,WindDirectionDegrees,WindSpeedMPH,WindSpeedGustMPH,Humidity,HourlyPrecipIn,Conditions,Clouds,dailyrainin,SoftwareType,DateUTC
2014-03-08 00:01:00,43.0,32.4,29.97,ESE,113,0.0,0.0,66,0.00,,,0.00,WUHU216HW,2014-03-08 06:01:00,
2014-03-08 00:05:00,42.8,31.9,29.97,ESE,113,0.0,0.0,65,0.00,,,0.00,WUHU216HW,2014-03-08 06:05:00,
2014-03-08 00:10:00,42.7,31.7,29.97,ESE,113,0.0,0.0,65,0.00,,,0.00,WUHU216HW,2014-03-08 06:10:00,
2014-03-08 00:15:00,42.7,32.0,29.97,ESE,113,0.0,0.0,66,0.00,,,0.00,WUHU216HW,2014-03-08 06:15:00,
2014-03-08 00:20:00,42.7,32.0,29.97,ESE,113,0.0,0.0,66,0.00,,,0.00,WUHU216HW,2014-03-08 06:20:00,
2014-03-08 00:25:00,42.7,31.7,29.97,ESE,113,0.0,0.0,65,0.00,,,0.00,WUHU216HW,2014-03-08 06:25:00,
2014-03-08 00:30:00,42.5,31.5,29.97,ESE,113,0.0,0.0,65,0.00,,,0.00,WUHU216HW,2014-03-08 06:30:00,
2014-03-08 00:35:00,42.5,31.5,29.97,ESE,113,0.0,0.0,65,0.00,,,0.00,WUHU216HW,2014-03-08 06:35:00,
2014-03-08 00:40:00,42.3,32.1,29.97,ESE,113,0.0,0.0,67,0.00,,,0.00,WUHU216HW,2014-03-08 06:40:00,
2014-03-08 00:45:00,42.3,33.3,29.97,ESE,113,0.0,0.0,70,0.00,,,0.00,WUHU216HW,2014-03-08 06:45:00,
2014-03-08 00:50:00,42.3,33.0,29.97,ESE,113,0.0,0.0,69,0.00,,,0.00,WUHU216HW,2014-03-08 06:50:00,
2014-03-08 00:55:00,42.1,32.3,29.98,ESE,113,0.0,0.0,68,0.00,,,0.00,WUHU216HW,2014-03-08 06:55:00,
2014-03-08 01:00:00,42.1,32.3,29.98,ESE,113,0.0,0.0,68,0.00,,,0.00,WUHU216HW,2014-03-08 07:00:00,
2014-03-08 01:05:00,41.9,32.1,29.98,ESE,113,0.0,0.0,68,0.00,,,0.00,WUHU216HW,2014-03-08 07:05:00,
2014-03-08 01:10:00,41.8,32.8,29.98,ESE,113,0.0,0.0,70,0.00,,,0.00,WUHU216HW,2014-03-08 07:10:00,
2014-03-08 01:15:00,41.6,33.0,29.98,ESE,113,0.0,0.0,71,0.00,,,0.00,WUHU216HW,2014-03-08 07:15:00,
2014-03-08 01:20:00,41.4,32.4,29.98,ESE,113,0.0,0.0,70,0.00,,,0.00,WUHU216HW,2014-03-08 07:20:00,
2014-03-08 01:25:00,41.4,32.1,29.98,ESE,113,0.0,0.0,69,0.00,,,0.00,WUHU216HW,2014-03-08 07:25:00,
2014-03-08 01:30:00,41.6,32.2,29.98,SE,135,0.0,0.2,69,0.00,,,0.00,WUHU216HW,2014-03-08 07:30:00,
2014-03-08 01:35:00,41.6,32.2,29.98,SE,135,0.0,0.2,69,0.00,,,0.00,WUHU216HW,2014-03-08 07:35:00,
2014-03-08 01:40:00,41.4,32.1,29.98,SE,135,0.0,0.2,69,0.00,,,0.00,WUHU216HW,2014-03-08 07:40:00,
2014-03-08 01:45:00,41.4,32.1,29.98,SE,135,0.0,0.2,69,0.00,,,0.00,WUHU216HW,2014-03-08 07:45:00,
2014-03-08 01:50:00,41.4,31.7,29.98,SE,135,0.0,0.2,68,0.00,,,0.00,WUHU216HW,2014-03-08 07:50:00,
2014-03-08 01:55:00,41.0,30.9,29.98,SE,135,0.0,0.0,67,0.00,,,0.00,WUHU216HW,2014-03-08 07:55:00,
2014-03-08 02:00:00,40.9,31.5,29.99,SE,135,0.0,0.0,69,0.00,,,0.00,WUHU216HW,2014-03-08 08:00:00,
2014-03-08 02:05:00,40.7,31.3,29.98,SE,135,0.0,0.2,69,0.00,,,0.00,WUHU216HW,2014-03-08 08:05:00,
2014-03-08 02:10:00,40.7,31.0,29.98,SE,135,0.0,0.2,68,0.00,,,0.00,WUHU216HW,2014-03-08 08:10:00,
2014-03-08 02:15:00,40.7,31.7,29.98,SE,135,0.0,0.0,70,0.00,,,0.00,WUHU216HW,2014-03-08 08:15:00,
2014-03-08 02:20:00,40.7,31.7,29.98,SE,135,0.0,0.0,70,0.00,,,0.00,WUHU216HW,2014-03-08 08:20:00,
2014-03-08 02:25:00,40.7,31.3,29.98,SE,135,0.0,0.0,69,0.00,,,0.00,WUHU216HW,2014-03-08 08:25:00,
2014-03-08 02:30:00,40.7,32.1,29.98,SE,135,0.0,0.0,71,0.00,,,0.00,WUHU216HW,2014-03-08 08:30:00,
2014-03-08 02:35:00,40.5,31.9,29.99,SE,135,0.0,0.0,71,0.00,,,0.00,WUHU216HW,2014-03-08 08:35:00,
2014-03-08 02:40:00,39.4,30.4,29.99,East,90,0.0,0.0,70,0.00,,,0.00,WUHU216HW,2014-03-08 08:40:00,
2014-03-08 02:45:00,38.9,29.9,29.99,East,90,0.0,0.0,70,0.00,,,0.00,WUHU216HW,2014-03-08 08:45:00,
2014-03-08 02:50:00,38.9,29.9,29.99,East,90,0.0,0.0,70,0.00,,,0.00,WUHU216HW,2014-03-08 08:50:00,
2014-03-08 02:55:00,38.7,30.1,29.99,East,90,0.0,0.0,71,0.00,,,0.00,WUHU216HW,2014-03-08 08:55:00,
2014-03-08 03:00:00,38.7,30.1,29.99,East,90,0.0,0.0,71,0.00,,,0.00,WUHU216HW,2014-03-08 09:00:00,
2014-03-08 03:05:00,38.7,30.8,29.99,NNW,338,0.2,1.1,73,0.00,,,0.00,WUHU216HW,2014-03-08 09:05:00,
2014-03-08 03:10:00,37.8,30.2,29.99,NNW,338,0.0,1.6,74,0.00,,,0.00,WUHU216HW,2014-03-08 09:10:00,
2014-03-08 03:15:00,37.4,30.2,29.99,North,0,0.0,2.2,75,0.00,,,0.00,WUHU216HW,2014-03-08 09:15:00,
2014-03-08 03:20:00,37.1,30.3,29.99,NNW,338,0.0,2.2,76,0.00,,,0.00,WUHU216HW,2014-03-08 09:20:00,
2014-03-08 03:25:00,36.7,29.2,29.99,NNW,338,0.0,1.6,74,0.00,,,0.00,WUHU216HW,2014-03-08 09:25:00,
2014-03-08 03:30:00,36.7,29.5,29.99,NNW,338,0.0,0.0,75,0.00,,,0.00,WUHU216HW,2014-03-08 09:30:00,
2014-03-08 03:35:00,36.9,29.3,29.99,NNW,338,0.0,0.0,74,0.00,,,0.00,WUHU216HW,2014-03-08 09:35:00,
2014-03-08 03:39:00,36.9,29.7,29.99,NNW,338,0.0,0.0,75,0.00,,,0.00,WUHU216HW,2014-03-08 09:39:00,
2014-03-08 03:44:00,37.1,30.9,29.99,ESE,113,0.2,0.2,78,0.00,,,0.00,WUHU216HW,2014-03-08 09:44:00,
2014-03-08 03:49:00,36.9,30.1,29.99,ESE,113,0.0,0.2,76,0.00,,,0.00,WUHU216HW,2014-03-08 09:49:00,
2014-03-08 03:54:00,36.9,30.3,29.99,ESE,113,0.0,0.0,77,0.00,,,0.00,WUHU216HW,2014-03-08 09:54:00,
2014-03-08 03:59:00,36.9,31.0,29.99,ESE,113,0.0,0.0,79,0.00,,,0.00,WUHU216HW,2014-03-08 09:59:00,
2014-03-08 04:04:00,36.7,30.2,29.99,ESE,113,0.0,0.0,77,0.00,,,0.00,WUHU216HW,2014-03-08 10:04:00,
2014-03-08 04:09:00,36.7,30.2,29.99,ESE,113,0.0,0.0,77,0.00,,,0.00,WUHU216HW,2014-03-08 10:09:00,
2014-03-08 04:14:00,36.7,30.2,29.99,SE,135,0.2,0.2,77,0.00,,,0.00,WUHU216HW,2014-03-08 10:14:00,
2014-03-08 04:19:00,36.5,30.0,30.00,SE,135,0.0,0.2,77,0.00,,,0.00,WUHU216HW,2014-03-08 10:19:00,
2014-03-08 04:24:00,36.4,30.2,30.00,NW,315,0.2,0.4,78,0.00,,,0.00,WUHU216HW,2014-03-08 10:24:00,
2014-03-08 04:29:00,36.2,29.4,30.00,NNW,338,0.0,0.4,76,0.00,,,0.00,WUHU216HW,2014-03-08 10:29:00,
2014-03-08 04:34:00,36.0,29.2,30.00,NNW,338,0.0,0.4,76,0.00,,,0.00,WUHU216HW,2014-03-08 10:34:00,
2014-03-08 04:39:00,35.8,28.6,29.99,NNW,338,0.0,0.2,75,0.00,,,0.00,WUHU216HW,2014-03-08 10:39:00,
2014-03-08 04:44:00,35.6,28.4,30.00,NNW,338,0.0,0.4,75,0.00,,,0.00,WUHU216HW,2014-03-08 10:44:00,
2014-03-08 04:49:00,35.6,28.8,30.00,NNW,338,0.0,0.4,76,0.00,,,0.00,WUHU216HW,2014-03-08 10:49:00,
2014-03-08 04:54:00,35.6,29.4,30.00,NW,315,0.4,1.3,78,0.00,,,0.00,WUHU216HW,2014-03-08 10:54:00,
2014-03-08 04:59:00,35.1,29.2,30.01,NW,315,0.0,1.3,79,0.00,,,0.00,WUHU216HW,2014-03-08 10:59:00,
2014-03-08 05:04:00,34.7,29.2,30.01,NNW,338,0.2,0.9,80,0.00,,,0.00,WUHU216HW,2014-03-08 11:04:00,
2014-03-08 05:09:00,34.4,28.8,30.02,North,0,0.7,1.6,80,0.00,,,0.00,WUHU216HW,2014-03-08 11:09:00,
2014-03-08 05:14:00,34.4,28.8,30.02,NNW,338,0.0,1.6,80,0.00,,,0.00,WUHU216HW,2014-03-08 11:14:00,
2014-03-08 05:19:00,34.6,29.0,30.02,North,0,0.9,1.1,80,0.00,,,0.00,WUHU216HW,2014-03-08 11:19:00,
2014-03-08 05:24:00,34.9,29.6,30.03,NNW,338,0.9,1.1,81,0.00,,,0.00,WUHU216HW,2014-03-08 11:24:00,
2014-03-08 05:29:00,35.6,30.6,30.03,NNW,338,1.6,2.9,82,0.00,,,0.00,WUHU216HW,2014-03-08 11:29:00,
2014-03-08 05:34:00,36.4,31.7,30.03,NNW,338,2.5,2.9,83,0.00,,,0.00,WUHU216HW,2014-03-08 11:34:00,
2014-03-08 05:39:00,36.7,32.1,30.04,North,0,3.4,3.4,83,0.00,,,0.00,WUHU216HW,2014-03-08 11:39:00,
2014-03-08 05:44:00,36.9,32.5,30.05,NNW,338,1.1,3.4,84,0.00,,,0.00,WUHU216HW,2014-03-08 11:44:00,
2014-03-08 05:49:00,37.1,32.7,30.05,NNW,338,0.7,2.9,84,0.00,,,0.00,WUHU216HW,2014-03-08 11:49:00,
2014-03-08 05:54:00,37.1,32.7,30.05,NNW,338,1.1,4.5,84,0.00,,,0.00,WUHU216HW,2014-03-08 11:54:00,
2014-03-08 05:59:00,37.3,32.6,30.05,North,0,2.9,4.5,83,0.00,,,0.00,WUHU216HW,2014-03-08 11:59:00,
2014-03-08 06:04:00,37.3,32.9,30.06,North,0,2.2,2.9,84,0.00,,,0.00,WUHU216HW,2014-03-08 12:04:00,
2014-03-08 06:09:00,37.4,33.0,30.06,NNW,338,1.6,2.7,84,0.00,,,0.00,WUHU216HW,2014-03-08 12:09:00,
2014-03-08 06:14:00,37.4,33.3,30.07,NNW,338,2.0,3.4,85,0.00,,,0.00,WUHU216HW,2014-03-08 12:14:00,
2014-03-08 06:19:00,37.4,33.6,30.07,NNW,338,2.5,4.3,86,0.00,,,0.00,WUHU216HW,2014-03-08 12:19:00,
2014-03-08 06:24:00,37.4,33.3,30.07,NNW,338,2.0,4.3,85,0.00,,,0.00,WUHU216HW,2014-03-08 12:24:00,
2014-03-08 06:29:00,37.4,33.6,30.07,NNW,338,3.1,4.3,86,0.00,,,0.00,WUHU216HW,2014-03-08 12:29:00,
2014-03-08 06:34:00,37.4,33.3,30.07,NW,315,2.5,4.7,85,0.00,,,0.00,WUHU216HW,2014-03-08 12:34:00,
2014-03-08 06:39:00,37.3,33.1,30.07,NNW,338,2.9,4.7,85,0.00,,,0.00,WUHU216HW,2014-03-08 12:39:00,
2014-03-08 06:44:00,37.1,32.9,30.08,NNW,338,6.5,6.5,85,0.00,,,0.00,WUHU216HW,2014-03-08 12:44:00,
2014-03-08 06:49:00,37.1,33.2,30.07,North,0,4.5,6.5,86,0.00,,,0.00,WUHU216HW,2014-03-08 12:49:00,
2014-03-08 06:54:00,36.7,32.9,30.07,NNW,338,6.5,6.5,86,0.00,,,0.00,WUHU216HW,2014-03-08 12:54:00,
2014-03-08 06:59:00,36.7,33.1,30.08,North,0,4.9,6.5,87,0.00,,,0.00,WUHU216HW,2014-03-08 12:59:00,
2014-03-08 07:04:00,36.5,32.7,30.06,North,0,0.4,4.9,86,0.00,,,0.00,WUHU216HW,2014-03-08 13:04:00,
2014-03-08 07:09:00,36.5,32.7,30.07,NNW,338,1.6,7.4,86,0.00,,,0.00,WUHU216HW,2014-03-08 13:09:00,
2014-03-08 07:14:00,36.4,32.8,30.07,NNW,338,1.6,7.4,87,0.00,,,0.00,WUHU216HW,2014-03-08 13:14:00,
2014-03-08 07:19:00,36.4,32.8,30.08,NNW,338,3.4,5.1,87,0.01,,,0.00,WUHU216HW,2014-03-08 13:19:00,
2014-03-08 07:24:00,36.4,33.1,30.09,WNW,293,0.9,4.9,88,0.01,,,0.00,WUHU216HW,2014-03-08 13:24:00,
2014-03-08 07:29:00,36.4,32.8,30.11,NNW,338,2.7,2.7,87,0.01,,,0.00,WUHU216HW,2014-03-08 13:29:00,
2014-03-08 07:34:00,36.4,32.8,30.11,North,0,3.1,3.4,87,0.01,,,0.00,WUHU216HW,2014-03-08 13:34:00,
2014-03-08 07:39:00,36.4,33.1,30.11,NNW,338,1.8,3.4,88,0.01,,,0.00,WUHU216HW,2014-03-08 13:39:00,
2014-03-08 07:44:00,36.4,32.8,30.10,North,0,2.5,4.5,87,0.01,,,0.00,WUHU216HW,2014-03-08 13:44:00,
2014-03-08 07:49:00,36.5,33.3,30.10,North,0,3.1,4.5,88,0.01,,,0.00,WUHU216HW,2014-03-08 13:49:00,
2014-03-08 07:54:00,36.5,33.3,30.10,North,0,4.7,4.7,88,0.01,,,0.00,WUHU216HW,2014-03-08 13:54:00,
2014-03-08 07:59:00,36.4,33.1,30.10,North,0,2.0,6.0,88,0.01,,,0.00,WUHU216HW,2014-03-08 13:59:00,
2014-03-08 08:04:00,36.4,33.1,30.10,North,0,2.5,6.0,88,0.01,,,0.00,WUHU216HW,2014-03-08 14:04:00,
2014-03-08 08:09:00,36.4,33.1,30.11,North,0,3.4,5.1,88,0.01,,,0.00,WUHU216HW,2014-03-08 14:09:00,
2014-03-08 08:14:00,36.4,33.1,30.12,North,0,3.8,4.0,88,0.00,,,0.00,WUHU216HW,2014-03-08 14:14:00,
2014-03-08 08:19:00,36.5,33.3,30.13,North,0,2.5,3.8,88,0.01,,,0.02,WUHU216HW,2014-03-08 14:19:00,
2014-03-08 08:24:00,36.5,33.3,30.13,North,0,4.0,4.0,88,0.01,,,0.02,WUHU216HW,2014-03-08 14:24:00,
2014-03-08 08:26:00,36.5,33.3,30.13,NNE,23,1.8,4.0,88,0.01,,,0.02,WUHU216HW,2014-03-08 14:26:00,
2014-03-08 08:31:00,36.5,33.6,30.14,North,0,1.8,4.0,89,0.01,,,0.02,WUHU216HW,2014-03-08 14:31:00,
2014-03-08 08:36:00,36.7,33.8,30.13,NNW,338,3.4,4.0,89,0.01,,,0.02,WUHU216HW,2014-03-08 14:36:00,
2014-03-08 08:41:00,36.7,33.5,30.14,NNE,23,2.9,3.4,88,0.01,,,0.02,WUHU216HW,2014-03-08 14:41:00,
2014-03-08 08:46:00,36.4,33.4,30.14,WSW,248,3.6,3.8,89,0.01,,,0.02,WUHU216HW,2014-03-08 14:46:00,
2014-03-08 08:51:00,36.4,33.1,30.14,NNW,338,1.6,5.6,88,0.01,,,0.02,WUHU216HW,2014-03-08 14:51:00,
2014-03-08 08:56:00,36.5,33.3,30.14,NNW,338,4.3,5.6,88,0.01,,,0.02,WUHU216HW,2014-03-08 14:56:00,
2014-03-08 09:01:00,36.5,33.3,30.13,North,0,3.6,4.9,88,0.01,,,0.02,WUHU216HW,2014-03-08 15:01:00,
2014-03-08 09:06:00,36.4,33.1,30.13,North,0,4.7,7.6,88,0.01,,,0.02,WUHU216HW,2014-03-08 15:06:00,
2014-03-08 09:11:00,36.0,32.8,30.13,NNE,23,8.9,8.9,88,0.01,,,0.02,WUHU216HW,2014-03-08 15:11:00,
2014-03-08 09:16:00,35.8,32.6,30.13,North,0,3.4,8.9,88,0.00,,,0.02,WUHU216HW,2014-03-08 15:16:00,
2014-03-08 09:21:00,35.8,32.9,30.13,NNW,338,4.3,7.4,89,0.00,,,0.02,WUHU216HW,2014-03-08 15:21:00,
2014-03-08 09:26:00,35.8,32.9,30.14,NNW,338,3.4,4.7,89,0.00,,,0.02,WUHU216HW,2014-03-08 15:26:00,
2014-03-08 09:31:00,35.6,32.7,30.14,North,0,5.4,6.9,89,0.00,,,0.02,WUHU216HW,2014-03-08 15:31:00,
2014-03-08 09:36:00,35.6,32.7,30.14,North,0,4.3,6.9,89,0.00,,,0.02,WUHU216HW,2014-03-08 15:36:00,
2014-03-08 09:41:00,35.6,32.7,30.14,North,0,5.1,6.9,89,0.00,,,0.02,WUHU216HW,2014-03-08 15:41:00,
2014-03-08 09:46:00,35.6,32.7,30.14,West,270,4.0,7.8,89,0.00,,,0.02,WUHU216HW,2014-03-08 15:46:00,
2014-03-08 09:51:00,35.5,32.5,30.13,North,0,7.4,8.1,89,0.00,,,0.02,WUHU216HW,2014-03-08 15:51:00,
2014-03-08 09:56:00,35.5,32.5,30.13,North,0,6.3,8.1,89,0.00,,,0.02,WUHU216HW,2014-03-08 15:56:00,
2014-03-08 10:01:00,35.3,32.3,30.14,NNE,23,2.5,7.2,89,0.00,,,0.02,WUHU216HW,2014-03-08 16:01:00,
2014-03-08 10:06:00,35.3,32.3,30.15,NNW,338,2.7,6.9,89,0.00,,,0.02,WUHU216HW,2014-03-08 16:06:00,
2014-03-08 10:11:00,35.5,32.5,30.15,North,0,2.7,4.7,89,0.00,,,0.02,WUHU216HW,2014-03-08 16:11:00,
2014-03-08 10:16:00,35.5,32.5,30.15,NNE,23,5.4,6.9,89,0.00,,,0.02,WUHU216HW,2014-03-08 16:16:00,
2014-03-08 10:21:00,35.3,32.3,30.15,NNE,23,6.3,6.9,89,0.01,,,0.03,WUHU216HW,2014-03-08 16:21:00,
2014-03-08 10:26:00,35.3,32.3,30.14,North,0,6.3,6.7,89,0.01,,,0.03,WUHU216HW,2014-03-08 16:26:00,
2014-03-08 10:31:00,35.3,32.3,30.13,North,0,3.8,6.3,89,0.01,,,0.03,WUHU216HW,2014-03-08 16:31:00,
2014-03-08 10:36:00,35.1,32.1,30.13,North,0,5.4,7.2,89,0.01,,,0.03,WUHU216HW,2014-03-08 16:36:00,
2014-03-08 10:41:00,34.9,32.0,30.13,North,0,6.3,7.6,89,0.01,,,0.03,WUHU216HW,2014-03-08 16:41:00,
2014-03-08 10:46:00,34.9,32.0,30.14,North,0,4.0,7.6,89,0.02,,,0.04,WUHU216HW,2014-03-08 16:46:00,
2014-03-08 10:48:00,35.1,32.1,30.14,North,0,5.8,6.3,89,0.03,,,0.05,WUHU216HW,2014-03-08 16:48:00,
2014-03-08 10:53:00,35.1,32.1,30.14,North,0,3.8,6.7,89,0.03,,,0.05,WUHU216HW,2014-03-08 16:53:00,
2014-03-08 10:58:00,35.3,32.3,30.14,NNE,23,3.8,6.7,89,0.03,,,0.05,WUHU216HW,2014-03-08 16:58:00,
2014-03-08 11:03:00,35.3,32.3,30.15,NNW,338,3.8,6.3,89,0.04,,,0.05,WUHU216HW,2014-03-08 17:03:00,
2014-03-08 11:08:00,35.1,32.1,30.16,North,0,4.5,6.3,89,0.04,,,0.06,WUHU216HW,2014-03-08 17:08:00,
2014-03-08 11:13:00,34.9,32.0,30.15,North,0,3.6,8.7,89,0.04,,,0.06,WUHU216HW,2014-03-08 17:13:00,
2014-03-08 11:18:00,34.7,31.8,30.16,NNW,338,4.7,8.7,89,0.03,,,0.06,WUHU216HW,2014-03-08 17:18:00,
2014-03-08 11:23:00,34.6,31.6,30.16,NNW,338,5.6,7.2,89,0.03,,,0.06,WUHU216HW,2014-03-08 17:23:00,
2014-03-08 11:28:00,34.7,32.0,30.16,North,0,2.5,5.8,90,0.03,,,0.06,WUHU216HW,2014-03-08 17:28:00,
2014-03-08 11:33:00,34.6,31.9,30.17,North,0,2.2,5.4,90,0.03,,,0.06,WUHU216HW,2014-03-08 17:33:00,
2014-03-08 11:38:00,34.6,31.9,30.18,North,0,4.5,4.5,90,0.03,,,0.06,WUHU216HW,2014-03-08 17:38:00,
2014-03-08 11:43:00,34.6,31.6,30.18,North,0,2.7,4.5,89,0.02,,,0.06,WUHU216HW,2014-03-08 17:43:00,
2014-03-08 11:48:00,34.6,31.6,30.18,North,0,6.3,6.3,89,0.01,,,0.06,WUHU216HW,2014-03-08 17:48:00,
2014-03-08 11:53:00,34.6,31.6,30.18,North,0,1.8,6.3,89,0.01,,,0.06,WUHU216HW,2014-03-08 17:53:00,
2014-03-08 11:58:00,34.4,31.7,30.18,North,0,4.7,6.3,90,0.01,,,0.06,WUHU216HW,2014-03-08 17:58:00,
2014-03-08 12:03:00,34.4,31.7,30.18,NNW,338,1.3,5.4,90,0.00,,,0.06,WUHU216HW,2014-03-08 18:03:00,
2014-03-08 12:08:00,34.6,31.9,30.17,North,0,2.9,4.7,90,0.00,,,0.06,WUHU216HW,2014-03-08 18:08:00,
2014-03-08 12:13:00,34.6,31.9,30.16,North,0,5.4,6.0,90,0.00,,,0.06,WUHU216HW,2014-03-08 18:13:00,
2014-03-08 12:18:00,34.6,31.9,30.16,North,0,2.5,6.7,90,0.00,,,0.06,WUHU216HW,2014-03-08 18:18:00,
2014-03-08 12:23:00,34.6,31.9,30.16,North,0,5.1,7.8,90,0.00,,,0.06,WUHU216HW,2014-03-08 18:23:00,
2014-03-08 12:28:00,34.7,32.0,30.16,NNE,23,4.7,9.6,90,0.00,,,0.06,WUHU216HW,2014-03-08 18:28:00,
2014-03-08 12:33:00,35.1,32.4,30.16,NNE,23,5.4,9.6,90,0.00,,,0.06,WUHU216HW,2014-03-08 18:33:00,
2014-03-08 12:38:00,35.3,32.6,30.17,North,0,2.5,5.6,90,0.00,,,0.06,WUHU216HW,2014-03-08 18:38:00,
2014-03-08 12:43:00,35.3,32.3,30.16,NNE,23,4.3,5.6,89,0.00,,,0.06,WUHU216HW,2014-03-08 18:43:00,
2014-03-08 12:48:00,35.3,32.3,30.17,NNE,23,4.9,5.4,89,0.00,,,0.06,WUHU216HW,2014-03-08 18:48:00,
2014-03-08 12:53:00,35.3,32.3,30.17,NNE,23,2.2,4.9,89,0.00,,,0.06,WUHU216HW,2014-03-08 18:53:00,
2014-03-08 12:58:00,35.5,32.5,30.17,NNW,338,2.2,4.7,89,0.00,,,0.06,WUHU216HW,2014-03-08 18:58:00,
2014-03-08 13:03:00,35.3,32.3,30.18,North,0,1.1,3.6,89,0.00,,,0.06,WUHU216HW,2014-03-08 19:03:00,
2014-03-08 13:08:00,35.3,32.3,30.18,North,0,0.4,3.6,89,0.00,,,0.06,WUHU216HW,2014-03-08 19:08:00,
2014-03-08 13:13:00,35.3,32.3,30.18,North,0,3.1,6.0,89,0.00,,,0.06,WUHU216HW,2014-03-08 19:13:00,
2014-03-08 13:18:00,35.1,32.1,30.18,NW,315,3.4,6.0,89,0.00,,,0.06,WUHU216HW,2014-03-08 19:18:00,
2014-03-08 13:23:00,35.1,32.1,30.18,NNE,23,3.1,4.7,89,0.00,,,0.06,WUHU216HW,2014-03-08 19:23:00,
2014-03-08 13:28:00,35.1,32.1,30.19,NNE,23,2.0,4.3,89,0.00,,,0.06,WUHU216HW,2014-03-08 19:28:00,
2014-03-08 13:33:00,35.1,32.1,30.19,North,0,1.8,4.0,89,0.00,,,0.06,WUHU216HW,2014-03-08 19:33:00,
2014-03-08 13:38:00,35.1,32.1,30.18,North,0,7.2,7.2,89,0.00,,,0.06,WUHU216HW,2014-03-08 19:38:00,
2014-03-08 13:43:00,35.1,32.1,30.19,North,0,1.8,7.2,89,0.01,,,0.07,WUHU216HW,2014-03-08 19:43:00,
2014-03-08 13:48:00,35.1,32.1,30.19,NW,315,1.6,4.0,89,0.01,,,0.07,WUHU216HW,2014-03-08 19:48:00,
2014-03-08 13:53:00,34.9,32.0,30.18,North,0,2.9,3.6,89,0.01,,,0.07,WUHU216HW,2014-03-08 19:53:00,
2014-03-08 13:58:00,34.9,32.0,30.19,North,0,3.1,3.6,89,0.01,,,0.07,WUHU216HW,2014-03-08 19:58:00,
2014-03-08 14:03:00,34.9,32.0,30.19,North,0,2.5,4.5,89,0.01,,,0.07,WUHU216HW,2014-03-08 20:03:00,
2014-03-08 14:08:00,34.9,32.0,30.19,North,0,0.9,4.7,89,0.01,,,0.07,WUHU216HW,2014-03-08 20:08:00,
2014-03-08 14:13:00,35.1,32.1,30.18,NW,315,2.7,6.3,89,0.01,,,0.07,WUHU216HW,2014-03-08 20:13:00,
2014-03-08 14:18:00,34.9,32.0,30.19,North,0,2.0,6.3,89,0.01,,,0.07,WUHU216HW,2014-03-08 20:18:00,
2014-03-08 14:23:00,34.9,32.0,30.19,North,0,3.4,5.6,89,0.01,,,0.07,WUHU216HW,2014-03-08 20:23:00,
2014-03-08 14:28:00,34.9,32.0,30.18,NW,315,2.0,5.6,89,0.01,,,0.07,WUHU216HW,2014-03-08 20:28:00,
2014-03-08 14:33:00,34.9,32.0,30.19,NNE,23,3.1,6.3,89,0.01,,,0.07,WUHU216HW,2014-03-08 20:33:00,
2014-03-08 14:38:00,34.9,32.0,30.19,NNW,338,3.8,6.3,89,0.01,,,0.07,WUHU216HW,2014-03-08 20:38:00,
2014-03-08 14:43:00,34.9,32.0,30.18,North,0,7.4,7.4,89,0.00,,,0.07,WUHU216HW,2014-03-08 20:43:00,
2014-03-08 14:48:00,34.7,31.8,30.19,NNE,23,4.3,7.4,89,0.00,,,0.07,WUHU216HW,2014-03-08 20:48:00,
2014-03-08 14:53:00,34.6,31.6,30.19,NNW,338,2.5,6.3,89,0.00,,,0.07,WUHU216HW,2014-03-08 20:53:00,
2014-03-08 14:58:00,34.7,31.8,30.19,North,0,2.5,4.0,89,0.00,,,0.07,WUHU216HW,2014-03-08 20:58:00,
2014-03-08 15:03:00,34.7,31.8,30.18,North,0,2.7,5.4,89,0.00,,,0.07,WUHU216HW,2014-03-08 21:03:00,
2014-03-08 15:08:00,34.7,31.8,30.19,North,0,2.7,5.4,89,0.00,,,0.07,WUHU216HW,2014-03-08 21:08:00,
2014-03-08 15:13:00,34.6,31.6,30.19,North,0,1.3,4.9,89,0.00,,,0.07,WUHU216HW,2014-03-08 21:13:00,
2014-03-08 15:18:00,34.7,31.8,30.19,North,0,1.1,4.9,89,0.00,,,0.07,WUHU216HW,2014-03-08 21:18:00,
2014-03-08 15:23:00,34.9,32.0,30.19,NNE,23,6.3,6.3,89,0.00,,,0.07,WUHU216HW,2014-03-08 21:23:00,
2014-03-08 15:28:00,34.9,32.0,30.19,North,0,3.4,6.3,89,0.01,,,0.08,WUHU216HW,2014-03-08 21:28:00,
2014-03-08 15:33:00,34.9,32.0,30.20,North,0,4.5,4.7,89,0.01,,,0.08,WUHU216HW,2014-03-08 21:33:00,
2014-03-08 15:38:00,34.9,32.0,30.20,NNE,23,2.0,4.7,89,0.02,,,0.09,WUHU216HW,2014-03-08 21:38:00,
2014-03-08 15:43:00,34.7,31.8,30.21,North,0,5.4,5.4,89,0.02,,,0.09,WUHU216HW,2014-03-08 21:43:00,
2014-03-08 15:48:00,34.6,31.6,30.21,NNW,338,1.3,5.4,89,0.03,,,0.10,WUHU216HW,2014-03-08 21:48:00,
2014-03-08 15:53:00,34.4,31.4,30.21,North,0,0.9,5.1,89,0.04,,,0.10,WUHU216HW,2014-03-08 21:53:00,
2014-03-08 15:58:00,34.4,31.4,30.20,North,0,2.0,2.7,89,0.05,,,0.12,WUHU216HW,2014-03-08 21:58:00,
2014-03-08 16:03:00,34.2,31.2,30.21,North,0,3.4,3.8,89,0.06,,,0.13,WUHU216HW,2014-03-08 22:03:00,
2014-03-08 16:08:00,34.2,31.2,30.21,North,0,1.1,3.8,89,0.07,,,0.14,WUHU216HW,2014-03-08 22:08:00,
2014-03-08 16:13:00,34.2,31.2,30.20,North,0,4.3,4.3,89,0.08,,,0.15,WUHU216HW,2014-03-08 22:13:00,
2014-03-08 16:18:00,34.2,31.5,30.20,North,0,1.6,4.3,90,0.09,,,0.16,WUHU216HW,2014-03-08 22:18:00,
2014-03-08 16:23:00,34.2,31.5,30.20,North,0,2.9,5.8,90,0.10,,,0.17,WUHU216HW,2014-03-08 22:23:00,
2014-03-08 16:28:00,34.0,31.3,30.21,North,0,2.5,5.8,90,0.12,,,0.19,WUHU216HW,2014-03-08 22:28:00,
2014-03-08 16:33:00,34.0,31.3,30.20,North,0,4.5,6.9,90,0.14,,,0.21,WUHU216HW,2014-03-08 22:33:00,
2014-03-08 16:38:00,34.0,31.3,30.20,NNW,338,4.0,6.9,90,0.14,,,0.23,WUHU216HW,2014-03-08 22:38:00,
2014-03-08 16:43:00,33.8,31.1,30.20,NNW,338,3.1,6.0,90,0.14,,,0.23,WUHU216HW,2014-03-08 22:43:00,
2014-03-08 16:48:00,33.8,31.1,30.20,North,0,2.9,4.5,90,0.14,,,0.24,WUHU216HW,2014-03-08 22:48:00,
2014-03-08 16:53:00,33.8,31.1,30.20,North,0,2.0,4.5,90,0.14,,,0.25,WUHU216HW,2014-03-08 22:53:00,
2014-03-08 16:58:00,33.8,31.1,30.20,North,0,2.7,4.9,90,0.13,,,0.26,WUHU216HW,2014-03-08 22:58:00,
2014-03-08 17:03:00,33.8,31.1,30.19,North,0,2.2,5.8,90,0.15,,,0.28,WUHU216HW,2014-03-08 23:03:00,
2014-03-08 17:08:00,33.8,31.1,30.19,North,0,3.4,6.0,90,0.16,,,0.30,WUHU216HW,2014-03-08 23:08:00,
2014-03-08 17:13:00,33.8,31.4,30.19,North,0,2.2,6.0,91,0.18,,,0.33,WUHU216HW,2014-03-08 23:13:00,
2014-03-08 17:18:00,33.8,31.4,30.19,North,0,3.4,4.3,91,0.18,,,0.35,WUHU216HW,2014-03-08 23:18:00,
2014-03-08 17:23:00,33.8,31.4,30.19,NNW,338,4.7,4.7,91,0.18,,,0.36,WUHU216HW,2014-03-08 23:23:00,
2014-03-08 17:28:00,33.8,31.4,30.20,NNW,338,4.9,4.9,91,0.17,,,0.37,WUHU216HW,2014-03-08 23:28:00,
2014-03-08 17:33:00,33.8,31.4,30.20,NNW,338,3.1,4.9,91,0.16,,,0.38,WUHU216HW,2014-03-08 23:33:00,
2014-03-08 17:38:00,33.8,31.4,30.20,North,0,4.0,4.9,91,0.15,,,0.38,WUHU216HW,2014-03-08 23:38:00,
2014-03-08 17:43:00,33.8,31.4,30.20,North,0,3.4,4.9,91,0.14,,,0.38,WUHU216HW,2014-03-08 23:43:00,
2014-03-08 17:48:00,33.8,31.4,30.20,North,0,3.4,3.4,91,0.14,,,0.38,WUHU216HW,2014-03-08 23:48:00,
2014-03-08 17:53:00,33.8,31.4,30.20,North,0,5.4,5.4,91,0.13,,,0.39,WUHU216HW,2014-03-08 23:53:00,
2014-03-08 17:58:00,33.8,31.4,30.21,NNW,338,2.0,5.4,91,0.12,,,0.39,WUHU216HW,2014-03-08 23:58:00,
2014-03-08 18:03:00,33.8,31.4,30.22,NNE,23,2.5,4.5,91,0.11,,,0.40,WUHU216HW,2014-03-09 00:03:00,
2014-03-08 18:08:00,34.0,31.6,30.21,North,0,4.3,4.3,91,0.07,,,0.40,WUHU216HW,2014-03-09 00:08:00,
2014-03-08 18:13:00,34.0,31.6,30.21,NNE,23,3.1,4.3,91,0.06,,,0.40,WUHU216HW,2014-03-09 00:13:00,
2014-03-08 18:18:00,34.0,31.6,30.21,North,0,4.0,5.4,91,0.04,,,0.40,WUHU216HW,2014-03-09 00:18:00,
2014-03-08 18:23:00,34.0,31.6,30.22,North,0,5.1,6.9,91,0.04,,,0.40,WUHU216HW,2014-03-09 00:23:00,
2014-03-08 18:28:00,34.0,31.6,30.23,WNW,293,1.6,6.9,91,0.04,,,0.41,WUHU216HW,2014-03-09 00:28:00,
2014-03-08 18:33:00,34.0,31.6,30.23,NNW,338,4.0,6.7,91,0.03,,,0.41,WUHU216HW,2014-03-09 00:33:00,
2014-03-08 18:38:00,34.0,31.9,30.23,NNW,338,4.0,4.3,92,0.03,,,0.41,WUHU216HW,2014-03-09 00:38:00,
2014-03-08 18:43:00,34.0,31.9,30.23,North,0,3.4,4.3,92,0.03,,,0.41,WUHU216HW,2014-03-09 00:43:00,
2014-03-08 18:48:00,34.0,31.9,30.24,North,0,1.6,3.4,92,0.02,,,0.41,WUHU216HW,2014-03-09 00:48:00,
2014-03-08 18:53:00,34.2,31.8,30.25,NNW,338,0.2,4.0,91,0.03,,,0.42,WUHU216HW,2014-03-09 00:53:00,
2014-03-08 18:58:00,34.2,32.0,30.25,North,0,3.8,4.0,92,0.04,,,0.43,WUHU216HW,2014-03-09 00:58:00,
2014-03-08 19:03:00,34.2,32.0,30.25,North,0,3.4,5.6,92,0.03,,,0.43,WUHU216HW,2014-03-09 01:03:00,
2014-03-08 19:08:00,34.0,31.9,30.24,NNE,23,3.6,6.3,92,0.05,,,0.44,WUHU216HW,2014-03-09 01:08:00,
2014-03-08 19:13:00,34.0,31.9,30.25,North,0,2.0,6.3,92,0.05,,,0.45,WUHU216HW,2014-03-09 01:13:00,
2014-03-08 19:18:00,34.0,31.9,30.25,NNE,23,4.0,4.3,92,0.06,,,0.46,WUHU216HW,2014-03-09 01:18:00,
2014-03-08 19:23:00,34.0,31.9,30.25,North,0,1.3,4.3,92,0.05,,,0.46,WUHU216HW,2014-03-09 01:23:00,
2014-03-08 19:28:00,34.0,31.9,30.25,NNW,338,0.4,3.4,92,0.05,,,0.46,WUHU216HW,2014-03-09 01:28:00,
2014-03-08 19:33:00,34.2,32.0,30.25,North,0,2.9,4.5,92,0.07,,,0.48,WUHU216HW,2014-03-09 01:33:00,
2014-03-08 19:38:00,34.0,31.9,30.25,NNE,23,5.8,5.8,92,0.08,,,0.49,WUHU216HW,2014-03-09 01:38:00,
2014-03-08 19:43:00,34.0,31.9,30.25,North,0,2.9,5.8,92,0.08,,,0.49,WUHU216HW,2014-03-09 01:43:00,
2014-03-08 19:48:00,34.0,31.9,30.25,North,0,1.8,4.3,92,0.08,,,0.49,WUHU216HW,2014-03-09 01:48:00,
2014-03-08 19:53:00,34.0,31.9,30.25,NNW,338,1.1,3.4,92,0.07,,,0.50,WUHU216HW,2014-03-09 01:53:00,
2014-03-08 19:58:00,34.2,32.0,30.26,North,0,2.9,3.1,92,0.07,,,0.50,WUHU216HW,2014-03-09 01:58:00,
2014-03-08 20:03:00,34.0,31.9,30.26,North,0,1.1,4.3,92,0.06,,,0.50,WUHU216HW,2014-03-09 02:03:00,
2014-03-08 20:08:00,34.0,31.9,30.25,North,0,1.1,4.3,92,0.05,,,0.50,WUHU216HW,2014-03-09 02:08:00,
2014-03-08 20:13:00,34.0,31.9,30.25,NNE,23,2.2,2.5,92,0.04,,,0.50,WUHU216HW,2014-03-09 02:13:00,
2014-03-08 20:18:00,34.0,31.9,30.25,NNE,23,3.4,4.0,92,0.04,,,0.50,WUHU216HW,2014-03-09 02:18:00,
2014-03-08 20:23:00,34.2,32.0,30.26,North,0,1.6,4.0,92,0.04,,,0.50,WUHU216HW,2014-03-09 02:23:00,
2014-03-08 20:28:00,34.2,32.0,30.26,NNE,23,4.3,4.3,92,0.03,,,0.50,WUHU216HW,2014-03-09 02:28:00,
2014-03-08 20:33:00,34.2,32.0,30.26,North,0,1.6,4.3,92,0.01,,,0.50,WUHU216HW,2014-03-09 02:33:00,
2014-03-08 20:38:00,34.2,32.0,30.26,North,0,1.1,2.7,92,0.01,,,0.50,WUHU216HW,2014-03-09 02:38:00,
2014-03-08 20:43:00,34.2,32.0,30.26,North,0,0.0,2.2,92,0.01,,,0.50,WUHU216HW,2014-03-09 02:43:00,
2014-03-08 20:48:00,34.2,32.0,30.26,NNE,23,0.4,2.2,92,0.00,,,0.50,WUHU216HW,2014-03-09 02:48:00,
2014-03-08 20:53:00,34.2,32.0,30.26,North,0,0.4,1.8,92,0.00,,,0.50,WUHU216HW,2014-03-09 02:53:00,
2014-03-08 20:58:00,34.2,32.0,30.27,North,0,0.4,1.8,92,0.00,,,0.50,WUHU216HW,2014-03-09 02:58:00,
2014-03-08 21:03:00,34.2,32.0,30.27,North,0,0.4,1.3,92,0.00,,,0.50,WUHU216HW,2014-03-09 03:03:00,
2014-03-08 21:08:00,34.2,32.0,30.27,North,0,0.4,0.9,92,0.00,,,0.50,WUHU216HW,2014-03-09 03:08:00,
2014-03-08 21:13:00,34.2,32.0,30.28,NNW,338,0.2,0.9,92,0.00,,,0.50,WUHU216HW,2014-03-09 03:13:00,
2014-03-08 21:18:00,34.4,32.2,30.28,NNW,338,0.0,0.7,92,0.00,,,0.50,WUHU216HW,2014-03-09 03:18:00,
2014-03-08 21:23:00,34.4,32.2,30.28,North,0,0.7,1.3,92,0.00,,,0.50,WUHU216HW,2014-03-09 03:23:00,
2014-03-08 21:28:00,34.4,32.2,30.28,North,0,1.3,1.3,92,0.00,,,0.50,WUHU216HW,2014-03-09 03:28:00,
2014-03-08 21:33:00,34.4,32.0,30.27,North,0,2.9,2.9,91,0.00,,,0.50,WUHU216HW,2014-03-09 03:33:00,
2014-03-08 21:38:00,34.4,32.0,30.28,North,0,1.1,2.9,91,0.00,,,0.50,WUHU216HW,2014-03-09 03:38:00,
2014-03-08 21:43:00,34.2,31.8,30.27,North,0,3.1,3.4,91,0.00,,,0.50,WUHU216HW,2014-03-09 03:43:00,
2014-03-08 21:48:00,34.2,32.0,30.28,NNW,338,1.8,3.6,92,0.00,,,0.50,WUHU216HW,2014-03-09 03:48:00,
2014-03-08 21:53:00,34.2,32.0,30.28,NNE,23,3.4,3.6,92,0.00,,,0.50,WUHU216HW,2014-03-09 03:53:00,
2014-03-08 21:58:00,34.2,32.0,30.27,North,0,2.7,3.4,92,0.00,,,0.50,WUHU216HW,2014-03-09 03:58:00,
2014-03-08 22:03:00,34.2,32.0,30.27,NNE,23,0.4,3.1,92,0.00,,,0.50,WUHU216HW,2014-03-09 04:03:00,
2014-03-08 22:08:00,34.2,32.0,30.27,North,0,0.0,1.1,92,0.00,,,0.50,WUHU216HW,2014-03-09 04:08:00,
2014-03-08 22:13:00,34.2,32.0,30.27,NW,315,0.0,2.2,92,0.00,,,0.50,WUHU216HW,2014-03-09 04:13:00,
2014-03-08 22:18:00,34.2,32.0,30.28,North,0,0.0,2.2,92,0.00,,,0.50,WUHU216HW,2014-03-09 04:18:00,
2014-03-08 22:23:00,34.4,32.2,30.28,NW,315,0.0,1.3,92,0.00,,,0.50,WUHU216HW,2014-03-09 04:23:00,
2014-03-08 22:28:00,34.2,32.0,30.28,North,0,0.4,1.6,92,0.00,,,0.50,WUHU216HW,2014-03-09 04:28:00,
2014-03-08 22:33:00,34.2,32.0,30.28,North,0,0.2,1.6,92,0.00,,,0.50,WUHU216HW,2014-03-09 04:33:00,
2014-03-08 22:38:00,34.4,32.2,30.28,North,0,0.4,1.6,92,0.00,,,0.50,WUHU216HW,2014-03-09 04:38:00,
2014-03-08 22:43:00,34.2,32.0,30.28,North,0,0.0,1.8,92,0.00,,,0.50,WUHU216HW,2014-03-09 04:43:00,
2014-03-08 22:48:00,34.2,31.8,30.28,NNW,338,0.4,1.8,91,0.00,,,0.50,WUHU216HW,2014-03-09 04:48:00,
2014-03-08 22:53:00,34.2,31.8,30.28,NNE,23,1.8,1.8,91,0.00,,,0.50,WUHU216HW,2014-03-09 04:53:00,
2014-03-08 22:58:00,34.2,31.8,30.28,North,0,1.8,1.8,91,0.00,,,0.50,WUHU216HW,2014-03-09 04:58:00,
2014-03-08 23:01:00,34.2,31.8,30.27,North,0,1.3,1.8,91,0.00,,,0.50,WUHU216HW,2014-03-09 05:01:00,
2014-03-08 23:06:00,34.2,31.8,30.27,North,0,1.3,2.7,91,0.00,,,0.50,WUHU216HW,2014-03-09 05:06:00,
2014-03-08 23:11:00,34.2,31.8,30.27,North,0,0.7,2.7,91,0.00,,,0.50,WUHU216HW,2014-03-09 05:11:00,
2014-03-08 23:16:00,34.2,31.8,30.27,NNW,338,1.1,1.3,91,0.00,,,0.50,WUHU216HW,2014-03-09 05:16:00,
2014-03-08 23:21:00,34.2,31.8,30.27,North,0,0.4,1.8,91,0.00,,,0.50,WUHU216HW,2014-03-09 05:21:00,
2014-03-08 23:26:00,34.0,31.6,30.27,North,0,0.7,2.0,91,0.00,,,0.50,WUHU216HW,2014-03-09 05:26:00,
2014-03-08 23:31:00,34.0,31.6,30.27,NNW,338,1.3,2.0,91,0.00,,,0.50,WUHU216HW,2014-03-09 05:31:00,
2014-03-08 23:36:00,34.0,31.6,30.27,North,0,0.4,1.3,91,0.00,,,0.50,WUHU216HW,2014-03-09 05:36:00,
2014-03-08 23:41:00,34.0,31.6,30.28,North,0,0.0,1.8,91,0.00,,,0.50,WUHU216HW,2014-03-09 05:41:00,
2014-03-08 23:46:00,34.0,31.6,30.27,North,0,1.8,1.8,91,0.00,,,0.50,WUHU216HW,2014-03-09 05:46:00,
2014-03-08 23:47:00,34.0,31.6,30.27,North,0,1.3,1.8,91,0.00,,,0.50,WUHU216HW,2014-03-09 05:47:00,
2014-03-08 23:52:00,34.0,31.6,30.27,North,0,1.6,2.0,91,0.00,,,0.50,WUHU216HW,2014-03-09 05:52:00,
2014-03-08 23:57:00,33.8,31.4,30.27,North,0,2.9,5.1,91,0.00,,,0.50,WUHU216HW,2014-03-09 05:57:00,